Theta_e
276 276 276 276 276 276 277 277 277 277 277 277 277 277 275 274 272 271 271 272 273 276 278 276 278 280 279 280 280 280 280 282 282 281 281 281 282 285 288 289 291 292 294 295 296 297 298 299 300 301 301 305 305 305 306 306 307 309 309 311 312 314 316 319 326 329 330 329 330 329 329 329 331 330
275 276 276 276 276 276 276 276 277 277 277 276 277 276 276 276 274 273 271 271 275 275 277 277 277 278 277 279 279 280 279 282 281 280 280 281 281 285 286 288 290 291 292 292 294 295 296 297 297 299 302 305 305 306 305 306 307 307 310 311 311 312 315 317 323 327 328 329 329 329 329 329 330 331
275 274 274 275 274 275 275 275 276 276 276 276 276 276 276 276 275 274 273 271 274 277 274 277 278 278 278 278 278 279 279 281 281 280 280 280 282 284 284 286 289 290 290 292 293 294 295 296 297 296 301 301 304 305 305 306 306 307 310 312 313 311 313 317 319 324 328 328 328 329 329 329 328 330
274 273 273 273 273 274 274 274 274 274 274 275 275 275 275 275 275 274 273 272 272 276 275 276 277 277 277 278 277 277 278 280 281 279 279 279 282 279 279 282 285 288 290 291 292 293 294 294 294 296 297 301 303 304 306 306 307 307 308 309 313 313 313 314 317 321 325 326 326 327 328 327 327 327
273 272 272 272 272 273 272 272 273 273 273 273 273 273 273 273 273 273 272 271 271 274 276 276 276 277 277 276 277 276 276 276 277 279 277 278 277 278 278 279 282 286 288 290 291 292 292 294 295 296 294 300 301 304 306 306 306 306 306 306 309 313 314 315 317 318 321 325 324 325 325 325 326 326
272 272 271 271 271 272 272 272 271 272 272 272 272 272 272 271 272 273 272 271 271 270 273 274 275 275 276 274 276 275 275 275 276 275 276 277 277 277 278 279 280 284 287 290 292 293 293 294 296 295 296 297 301 302 304 304 304 304 305 306 306 308 312 314 316 318 320 323 325 325 325 325 325 325
271 270 270 270 271 271 271 271 271 271 271 271 271 270 271 270 271 271 272 271 269 270 271 273 273 274 274 274 274 275 275 276 275 275 275 275 277 277 278 279 280 283 286 288 289 291 293 294 294 296 296 299 300 301 301 303 303 304 304 305 306 306 309 311 313 316 320 322 324 325 325 324 325 325
270 270 270 270 270 270 270 270 270 271 271 270 270 270 270 270 270 271 271 271 270 270 269 271 272 272 272 273 274 275 275 275 274 275 275 275 275 276 278 279 279 282 287 289 290 292 293 294 296 297 297 298 299 300 300 302 303 303 303 304 305 305 307 309 312 314 318 321 323 324 324 324 324 324
270 270 270 270 270 270 269 269 270 271 270 271 271 270 270 270 271 271 271 271 271 270 269 270 272 272 272 273 273 274 273 273 274 274 274 275 275 276 278 279 280 283 286 286 287 288 290 292 294 295 296 297 299 299 300 301 302 302 303 303 303 305 306 308 310 312 314 316 318 322 323 323 323 323
270 270 270 270 270 270 269 270 270 271 271 271 271 271 271 271 271 271 271 271 271 270 270 270 270 271 271 272 273 274 274 273 272 273 274 275 275 276 276 278 280 281 283 284 285 287 288 289 291 293 294 296 298 299 300 301 300 300 300 301 302 304 305 307 309 311 313 314 315 317 321 323 323 322
271 271 271 271 271 271 271 271 271 271 271 271 271 271 271 271 271 271 271 271 270 270 270 270 271 270 272 272 271 273 274 274 273 272 272 273 275 276 276 277 280 282 282 285 287 287 288 288 289 291 293 297 298 298 300 300 300 300 299 300 302 303 305 307 308 310 312 312 313 314 315 318 321 322
272 272 272 272 272 272 272 272 272 272 272 272 271 272 272 272 271 271 271 271 271 270 270 270 270 271 271 272 273 274 274 273 273 274 273 272 273 275 277 279 280 282 283 283 284 287 288 289 290 292 293 296 298 299 299 299 299 298 299 300 302 303 304 306 308 309 310 311 312 313 313 315 317 320
273 273 273 273 273 274 275 276 277 277 277 275 274 274 273 271 271 270 271 271 270 270 270 270 271 271 270 271 271 271 271 271 271 273 274 273 274 276 277 278 280 281 281 282 283 285 287 288 290 292 293 294 296 297 297 298 297 297 299 300 302 303 304 306 307 308 309 310 310 312 313 313 314 315
274 274 274 274 276 277 277 278 278 279 279 279 277 276 275 275 274 273 272 271 270 270 269 269 270 269 269 270 271 271 272 273 274 273 273 273 274 276 276 277 280 282 284 284 284 286 289 290 291 292 292 294 294 294 295 296 297 297 300 301 301 302 303 305 307 308 309 310 310 310 312 312 313 313
273 274 274 274 275 276 276 275 277 278 278 278 279 279 279 279 276 274 273 273 273 271 270 271 271 270 270 271 272 272 272 273 273 273 274 274 275 274 274 273 277 282 283 283 282 283 289 290 289 290 292 293 294 296 296 297 298 299 300 301 302 302 303 305 307 308 309 309 310 309 310 311 312 312
273 273 273 274 274 274 274 275 275 276 278 278 278 279 279 279 279 279 276 273 272 273 272 272 272 272 272 272 273 273 273 273 274 275 275 275 275 275 275 275 275 279 282 280 280 282 287 288 287 286 288 289 291 292 295 297 299 301 302 301 302 303 303 305 307 307 308 309 309 309 309 310 311 311
273 273 273 273 273 274 276 275 274 274 274 276 278 278 278 278 279 279 280 280 276 274 273 272 272 273 273 273 274 276 276 277 275 276 275 276 276 276 275 275 276 278 281 281 279 279 282 285 285 285 287 288 289 291 294 296 297 299 302 303 302 303 303 305 306 307 308 309 309 309 310 309 309 310
272 272 272 272 272 273 274 274 274 274 274 274 274 274 274 274 276 278 279 278 279 278 275 274 272 273 274 273 274 275 276 275 274 275 274 275 275 275 275 277 277 279 281 279 278 277 279 282 285 284 286 288 289 290 293 296 297 299 301 303 304 304 304 305 306 307 308 308 309 309 309 309 309 309
272 273 273 273 273 273 273 274 275 275 275 275 275 275 274 275 275 275 275 275 275 275 275 274 274 274 275 275 275 275 276 275 275 276 275 275 275 276 277 277 279 279 280 279 278 275 280 284 284 285 287 289 289 291 293 296 297 299 300 302 304 304 304 305 306 307 307 308 308 308 309 309 309 309
273 273 273 273 273 273 274 276 278 278 276 275 274 274 274 274 275 275 277 279 279 277 276 276 276 276 276 279 277 277 277 277 277 277 277 276 276 275 274 274 276 277 280 282 281 280 282 285 284 285 287 288 288 289 291 294 297 298 300 301 304 304 305 305 305 306 307 308 308 308 308 308 308 308
273 273 273 273 274 274 274 276 278 279 279 275 274 273 273 273 273 273 275 278 280 280 281 281 281 282 282 283 283 283 283 281 280 277 275 274 276 274 273 274 275 276 280 282 284 283 282 285 285 285 286 287 287 289 290 292 295 297 299 302 304 304 305 305 305 306 307 307 308 308 308 308 307 307
273 274 276 276 274 273 273 277 278 279 277 274 273 273 272 272 272 273 275 276 276 279 280 280 281 281 281 282 282 283 283 283 282 277 274 276 277 275 275 274 276 278 280 281 285 282 283 286 286 285 286 287 287 287 289 291 293 296 298 301 303 304 305 305 305 306 306 307 307 308 308 308 307 310
273 273 274 275 275 274 275 278 278 278 277 274 274 274 273 272 272 273 274 274 274 275 275 275 276 277 278 278 277 278 281 282 281 279 278 279 277 275 276 276 276 275 277 281 284 281 282 284 285 285 284 282 286 287 288 290 292 295 299 302 304 303 304 305 305 306 306 306 307 307 307 307 307 312
273 273 272 273 275 276 276 277 278 278 279 276 275 274 273 272 271 273 273 274 274 274 275 275 276 276 277 277 277 277 277 277 278 278 278 279 279 277 277 277 276 275 277 281 286 283 284 285 284 286 285 282 281 285 286 287 288 290 293 301 304 304 303 303 304 305 305 306 306 307 307 307 307 312
271 271 271 271 273 275 276 277 278 279 279 278 275 274 272 272 273 276 273 274 276 273 274 274 275 276 276 276 277 277 277 277 278 279 279 280 280 279 278 277 277 277 279 282 285 284 282 284 283 285 284 284 284 284 285 287 288 289 291 296 303 307 305 306 305 307 304 305 306 307 307 307 307 311
271 270 270 270 272 275 276 277 277 278 277 277 273 272 275 277 277 274 273 272 271 271 272 273 274 274 275 276 276 277 277 278 279 280 280 280 281 281 280 279 278 277 279 283 286 283 283 282 283 283 283 283 283 285 284 285 287 289 291 295 302 307 306 305 306 307 307 307 308 308 308 307 307 309
270 270 270 270 274 276 276 276 276 276 277 274 271 275 276 276 276 274 270 269 269 269 270 270 271 275 276 276 276 277 277 279 279 280 280 281 281 281 282 282 282 282 283 284 284 284 284 283 284 283 282 283 282 283 284 283 285 288 289 292 300 307 307 308 306 306 307 307 308 306 306 306 307 308
270 269 270 272 275 275 275 275 275 275 274 271 274 275 275 275 273 269 268 268 268 268 268 269 270 272 275 277 277 278 279 279 280 280 281 281 282 282 282 282 282 283 284 284 285 285 284 283 283 284 284 283 282 281 281 285 286 287 287 289 296 307 308 307 307 304 305 306 308 308 307 307 308 310
270 272 275 274 273 273 273 273 273 271 271 272 273 273 273 272 268 267 267 267 267 267 267 268 269 270 273 275 278 280 280 281 281 281 281 282 282 283 283 283 283 283 284 285 285 285 285 284 284 285 284 284 283 283 283 283 285 285 287 287 289 303 305 307 308 307 305 307 307 307 307 308 308 309
273 273 273 272 271 271 269 268 267 266 267 271 272 271 271 267 267 267 267 267 266 266 267 267 268 269 271 272 274 275 277 279 279 280 280 281 281 282 282 282 282 284 285 285 285 286 286 285 285 285 284 284 284 283 284 284 284 285 286 287 288 296 304 307 307 307 304 305 306 306 309 310 310 309
268 267 267 267 270 269 270 269 269 269 268 266 266 266 266 266 266 267 267 267 267 267 267 267 268 269 270 271 272 273 274 276 280 281 281 281 281 281 282 281 281 282 283 285 286 286 286 286 286 285 283 284 284 284 285 285 284 285 286 288 288 291 301 306 306 306 306 306 307 306 308 309 308 305
266 264 266 265 264 263 263 263 263 263 264 264 264 265 265 266 267 268 270 270 268 268 268 268 269 269 269 269 270 271 273 275 277 280 282 281 281 281 281 280 279 281 282 284 285 286 286 286 286 286 285 285 283 284 285 285 285 285 286 287 288 292 302 304 305 305 307 307 305 304 306 307 308 309
263 260 260 260 261 261 261 261 261 261 262 262 263 264 264 265 265 266 266 266 266 267 267 267 267 267 268 268 270 271 271 272 273 276 279 282 281 282 281 280 280 280 280 282 284 285 285 285 286 286 286 286 286 285 285 284 285 286 286 287 288 291 301 306 305 305 306 305 303 303 304 307 308 309
258 258 258 259 259 259 260 259 260 260 261 261 262 263 265 265 264 265 266 266 267 267 267 267 267 267 267 268 268 268 269 270 272 274 276 279 282 281 280 280 280 281 282 282 283 284 285 285 285 285 285 285 286 286 286 285 285 286 287 288 289 292 300 305 306 306 305 304 303 302 303 304 307 309
256 257 257 258 258 259 259 259 259 260 260 261 261 262 263 264 264 265 265 266 267 267 267 267 267 267 267 267 267 267 268 268 269 271 274 276 280 281 281 280 280 281 282 282 283 284 285 285 284 284 284 285 284 286 288 287 286 286 287 288 290 293 300 304 304 305 305 305 305 302 302 304 305 308
256 256 256 257 257 258 258 259 260 260 260 261 261 262 262 263 264 264 265 266 267 266 266 266 267 267 267 266 267 267 267 268 268 269 271 273 276 280 282 282 282 282 283 283 284 285 285 284 284 283 282 283 283 283 285 289 289 288 287 287 290 295 301 302 302 304 304 304 304 304 301 302 303 306
255 256 256 256 257 258 258 258 259 260 260 261 261 262 262 262 263 265 266 267 267 267 267 267 266 266 266 266 266 267 267 267 266 268 269 271 273 276 280 282 282 283 283 283 284 284 284 284 285 284 283 282 282 282 284 289 288 290 291 289 291 298 301 302 302 302 303 304 304 304 304 304 304 306
254 255 255 256 257 257 258 258 259 260 260 261 261 262 262 263 264 265 266 266 266 267 267 266 266 266 266 266 265 265 266 266 266 266 267 269 270 273 278 281 282 283 283 283 284 284 284 284 284 285 284 283 282 283 284 288 290 289 290 292 292 298 301 301 301 301 302 304 303 304 306 304 304 306
254 255 255 255 256 257 257 258 259 259 260 260 261 261 262 263 264 264 264 265 266 266 267 266 266 266 266 266 266 265 265 265 264 265 266 267 269 271 274 279 282 283 283 283 284 284 285 284 285 285 285 284 284 285 287 288 289 294 293 292 295 299 300 301 301 302 302 302 304 305 302 302 305 302
254 255 255 255 255 256 257 258 258 259 260 260 261 262 262 263 263 263 264 265 266 267 266 266 266 266 265 265 265 265 265 265 265 265 265 266 268 270 273 277 281 283 283 283 283 284 285 285 286 286 286 287 288 289 290 291 292 294 294 295 295 300 302 302 301 301 301 302 302 299 298 300 300 301
253 253 254 254 255 255 256 257 258 259 260 261 261 263 262 263 263 263 264 266 267 266 266 266 266 265 265 265 265 265 264 264 265 265 265 266 268 270 272 275 277 282 283 282 283 283 284 286 287 288 288 289 290 291 290 289 289 293 295 296 295 296 298 301 305 303 300 299 299 300 300 299 297 299
252 252 253 253 254 255 255 256 257 258 259 260 261 261 262 263 263 267 266 266 266 267 266 266 266 265 265 265 265 265 264 264 264 264 265 265 266 268 270 273 276 281 283 282 283 284 286 288 288 288 289 289 289 287 286 288 290 292 293 294 294 295 297 298 299 300 303 301 301 299 299 298 299 299
252 252 252 253 254 255 255 256 257 258 259 260 261 261 262 262 263 264 264 265 266 266 266 266 266 265 265 265 265 265 264 264 264 264 265 265 266 266 268 271 275 278 283 284 285 286 286 287 288 289 289 290 289 289 287 290 291 291 292 293 294 295 294 295 298 298 297 298 300 302 302 299 298 296
250 251 252 252 253 254 255 256 257 258 259 260 260 261 262 262 263 263 264 265 266 266 266 266 266 265 265 264 264 264 264 264 265 265 265 265 266 267 268 270 273 276 279 283 285 285 286 286 287 288 288 289 290 290 289 290 290 290 292 292 293 294 294 294 294 295 296 293 291 291 291 291 291 296
250 250 251 252 253 254 254 255 257 258 259 260 260 261 262 263 263 264 264 266 267 267 266 266 265 265 265 264 264 263 264 266 266 265 265 265 266 267 268 269 272 275 279 282 284 285 286 286 288 289 289 290 290 290 291 291 291 290 291 292 292 294 294 294 295 295 293 292 292 292 292 293 293 293
Wind_Speed
6 6 7 7 8 7 7 7 7 8 7 8 8 8 10 10 12 15 17 23 19 20 9 10 9 3 4 9 5 7 8 12 16 15 18 19 18 23 31 34 36 36 35 33 33 32 30 30 33 35 36 33 35 36 37 36 35 34 34 33 31 29 28 27 25 29 34 39 40 40 39 38 40 37
5 6 6 5 7 6 6 7 7 7 7 8 8 8 9 9 13 13 15 22 18 19 20 12 11 11 3 3 11 8 10 18 20 17 17 18 17 28 35 35 35 37 38 37 36 36 35 34 34 33 35 34 35 35 37 34 35 35 35 36 33 32 29 28 28 28 30 34 36 37 38 38 39 38
5 5 7 6 8 7 8 7 7 7 7 8 8 8 8 9 10 12 13 17 22 14 19 22 12 11 15 10 10 14 12 13 18 16 15 17 25 32 27 35 35 35 37 37 36 35 35 34 35 36 32 37 37 37 35 34 33 37 36 35 33 32 30 29 30 29 31 34 36 40 43 46 44 42
5 6 8 8 8 7 7 8 8 8 8 8 8 8 9 10 9 10 13 17 25 19 18 21 24 16 15 16 12 13 15 12 19 15 14 17 26 21 20 30 35 35 35 35 36 35 35 36 38 36 35 33 41 34 30 31 30 30 31 34 34 32 31 30 30 29 29 33 35 37 37 37 41 42
6 7 8 8 8 7 9 8 8 8 9 8 8 8 8 10 9 10 13 18 23 21 16 18 20 20 13 17 14 13 15 15 12 13 16 18 17 18 18 20 30 34 35 36 36 36 36 35 35 34 36 32 36 35 31 32 30 30 31 33 33 32 32 31 31 30 30 30 36 36 35 35 34 35
6 7 8 9 9 7 9 10 10 9 9 8 8 8 8 10 11 10 14 17 18 25 18 19 19 20 13 18 18 16 16 18 14 17 16 15 16 17 18 18 19 32 34 35 35 34 35 34 35 36 34 36 34 34 35 30 30 30 30 30 30 31 32 32 32 32 30 30 36 42 46 43 43 40
7 8 9 10 8 7 9 10 10 9 9 8 9 11 9 11 12 12 13 15 19 21 22 19 19 18 16 15 19 17 15 16 14 17 17 14 14 15 18 18 16 27 33 37 38 39 38 36 36 34 35 34 32 31 35 32 29 29 30 30 31 31 31 30 31 31 30 31 32 36 40 46 46 45
8 9 9 10 8 9 10 10 9 8 8 9 9 11 11 12 14 14 13 15 17 17 20 20 15 20 17 18 16 15 15 15 15 15 16 15 17 18 17 18 18 23 35 36 35 35 35 35 34 35 36 35 33 32 34 33 29 27 28 29 30 30 31 30 31 31 32 31 33 33 35 36 40 43
9 9 9 10 9 9 10 11 10 9 11 10 10 11 12 13 12 12 13 16 16 18 20 18 19 16 18 16 19 14 16 16 15 16 16 16 17 18 18 17 19 28 36 37 38 38 38 38 37 38 39 39 35 33 33 32 32 28 29 30 30 31 31 31 31 31 31 31 32 37 37 37 36 36
9 10 10 10 9 10 10 11 11 11 14 13 14 14 14 15 15 14 17 15 19 18 20 18 20 15 21 13 18 14 15 16 16 16 16 17 16 17 18 17 15 15 15 13 15 22 27 32 37 37 39 42 39 34 30 29 33 32 30 31 31 31 31 31 32 32 31 31 31 37 42 43 40 39
10 10 10 10 10 11 12 12 13 14 15 13 16 17 16 17 14 18 14 18 16 20 17 20 19 19 15 16 20 12 15 17 15 19 19 19 14 14 16 18 14 13 15 21 29 27 26 28 26 29 37 38 38 34 31 31 33 34 33 32 32 31 30 31 32 32 32 30 30 32 37 40 42 43
11 12 12 12 13 13 13 13 14 14 15 15 18 17 15 15 17 15 17 14 18 15 20 15 20 13 21 13 16 16 13 18 17 13 16 21 19 15 15 14 13 13 14 16 16 18 22 25 32 39 40 37 34 32 31 34 34 35 34 33 33 32 30 30 32 32 31 31 29 31 33 36 37 39
12 12 12 12 13 14 19 24 22 21 21 14 13 12 11 13 14 15 16 14 15 14 16 16 15 16 14 18 14 18 17 14 19 18 14 19 17 14 16 15 13 14 16 17 17 17 19 17 17 16 15 20 25 25 29 26 31 32 31 32 32 32 30 30 32 32 31 31 30 31 32 34 37 39
12 12 11 11 19 21 22 23 25 26 27 28 22 18 16 15 13 13 13 13 13 14 17 16 15 18 18 17 15 16 19 16 17 19 18 19 17 14 16 16 15 9 11 13 16 19 17 16 15 12 12 10 12 10 13 14 18 24 30 31 32 32 31 30 31 31 31 30 30 31 33 34 37 37
12 12 13 12 14 17 18 18 25 25 26 27 29 32 31 26 20 16 16 17 15 15 15 13 13 17 19 17 18 16 18 16 17 17 16 17 14 13 14 19 20 10 6 12 14 17 12 8 7 8 9 8 9 10 12 18 24 27 29 30 30 30 30 30 31 31 31 31 31 31 34 39 38 40
11 12 12 11 9 10 13 13 14 19 27 31 32 33 31 31 31 30 22 18 17 17 17 18 17 16 17 17 15 14 15 14 17 16 14 13 12 15 15 16 16 15 7 14 16 17 11 7 9 9 10 10 10 12 16 21 23 27 29 30 30 29 29 30 31 31 31 31 31 32 32 35 41 40
12 11 11 11 11 11 19 17 15 16 17 25 32 32 33 32 33 32 34 33 25 19 20 21 22 17 17 20 17 13 16 16 19 17 15 14 12 14 18 16 16 19 10 11 16 19 20 13 12 11 12 10 11 12 16 23 26 28 28 29 29 29 29 30 31 31 31 31 33 32 35 33 37 43
11 12 12 13 13 11 13 14 16 16 17 17 17 16 15 14 20 28 31 33 36 31 23 22 23 22 18 21 19 19 18 18 16 15 15 12 13 14 14 14 17 16 9 11 14 18 22 17 12 13 13 10 11 11 16 22 24 27 28 28 28 28 28 29 30 31 31 31 33 35 35 37 35 36
11 13 13 14 13 15 17 14 18 18 17 16 16 17 17 17 12 11 13 14 16 17 19 22 24 25 22 23 23 20 17 18 17 16 19 17 16 16 14 14 15 17 14 14 13 17 18 13 11 12 11 10 11 10 16 22 24 27 28 27 28 28 28 29 30 31 31 31 32 34 37 39 40 40
11 12 12 12 15 17 14 20 28 25 20 19 19 19 18 16 15 15 18 27 27 24 19 18 19 19 22 27 23 21 18 16 15 15 17 16 14 12 16 18 14 14 14 11 12 14 15 13 11 13 10 9 11 12 12 19 24 27 28 29 28 28 28 29 30 31 31 31 32 32 36 37 40 41
11 10 11 13 14 16 17 23 29 29 28 19 17 16 17 18 17 16 17 26 34 35 37 39 40 41 41 39 40 39 40 31 20 15 17 18 12 15 15 13 14 16 11 10 10 14 16 13 10 11 9 10 13 12 12 12 19 26 26 28 29 28 28 29 30 31 31 32 33 34 37 41 38 42
9 12 20 19 15 16 17 26 30 30 25 17 16 17 19 21 20 16 13 13 16 27 34 37 39 40 38 39 40 40 38 36 27 17 20 18 13 18 15 13 14 14 13 14 9 13 15 11 7 9 12 12 9 10 11 13 13 20 23 27 28 28 28 29 30 31 31 33 34 36 37 37 41 33
10 12 13 20 19 19 21 29 28 32 26 19 18 17 17 17 19 18 17 17 17 16 16 19 21 23 28 26 23 24 35 35 31 21 19 14 15 17 17 15 14 15 16 11 10 15 15 11 11 9 9 9 10 8 10 6 7 9 11 13 18 26 28 29 30 31 32 31 34 35 39 37 38 27
9 12 12 13 18 23 26 28 30 31 33 24 19 16 16 17 22 16 17 18 19 20 18 18 18 21 18 17 17 18 17 20 22 21 19 14 14 15 15 16 15 16 13 8 7 12 11 10 11 5 7 10 12 8 5 9 9 9 10 11 11 19 27 29 27 33 30 33 36 37 39 41 36 21
10 11 12 12 18 24 26 28 31 32 31 29 20 16 15 16 22 26 18 21 27 19 18 18 17 15 14 16 13 14 15 14 14 16 18 16 13 15 14 15 14 17 13 11 15 12 13 5 7 7 8 7 10 13 14 10 11 9 10 11 11 12 14 17 15 18 27 35 36 38 36 35 44 30
9 12 13 13 19 26 29 30 30 31 30 31 19 17 27 32 33 24 18 15 15 15 15 14 15 15 15 15 13 12 13 14 13 13 13 15 15 16 16 16 16 15 14 9 19 16 16 14 12 11 11 11 12 9 14 15 12 10 10 11 11 13 14 14 16 16 17 20 24 32 36 41 41 43
10 11 13 14 22 28 29 29 30 29 31 25 18 29 30 30 32 27 14 16 14 14 15 17 17 16 14 11 11 12 12 12 13 14 15 16 16 16 17 18 17 17 15 13 13 14 13 13 10 12 13 11 13 13 13 13 15 12 11 12 13 14 14 15 17 16 16 19 19 32 33 37 40 40
12 12 12 15 27 27 27 28 28 28 26 19 28 29 31 30 26 15 15 13 14 16 17 16 16 15 15 13 12 11 11 13 14 15 15 16 17 17 15 17 18 17 17 16 15 14 14 14 14 13 13 14 14 15 15 13 11 11 12 13 15 14 14 16 16 15 15 17 16 21 21 23 27 29
11 15 22 25 24 24 25 27 26 22 22 26 27 29 28 26 13 13 13 14 14 14 15 15 15 15 14 14 14 13 13 13 14 14 15 16 16 17 17 17 16 16 14 13 15 15 14 14 15 14 13 13 14 14 13 15 12 13 11 12 15 12 14 16 16 17 15 16 17 18 20 22 23 24
18 18 20 23 22 20 19 16 14 13 16 25 26 26 24 13 12 12 13 13 14 14 15 15 16 15 15 15 16 18 18 15 14 14 14 14 14 14 14 14 14 14 15 15 16 15 15 15 14 14 14 14 14 14 13 13 14 14 11 10 14 16 14 16 17 17 17 17 17 19 20 22 23 21
5 10 12 12 18 17 23 22 20 19 19 15 14 11 11 11 12 12 11 13 15 14 14 15 15 15 16 16 16 15 13 14 14 13 14 14 14 13 12 13 13 13 13 13 15 16 15 14 13 15 15 14 14 15 14 11 15 15 13 12 12 13 10 16 17 17 17 17 16 18 19 20 21 21
6 7 10 12 9 10 10 10 9 9 9 11 11 11 11 11 12 16 21 19 13 13 13 13 13 13 13 14 14 14 14 14 14 15 15 13 14 13 12 11 12 12 12 11 12 14 14 13 13 13 15 14 15 13 10 12 14 14 14 15 12 16 14 17 18 17 19 19 18 18 19 19 20 19
4 4 6 6 8 8 9 10 10 10 10 10 10 12 11 11 11 12 11 13 13 13 12 13 14 14 13 14 14 14 14 14 15 15 16 15 14 13 12 13 12 11 11 12 10 9 10 12 15 16 15 15 16 15 13 14 14 13 14 15 13 15 14 16 18 19 19 18 17 17 17 19 19 19
4 4 5 6 7 9 9 10 11 11 11 12 12 11 14 13 11 12 13 12 13 13 13 13 13 13 13 13 13 13 15 15 15 15 17 16 14 13 12 12 12 12 13 13 11 9 8 10 11 13 14 15 14 15 15 15 17 14 14 14 13 15 14 15 17 20 20 18 18 17 17 17 19 20
4 5 6 7 7 7 8 9 10 11 11 12 12 13 12 11 13 14 14 14 14 14 14 13 12 12 13 14 13 14 15 16 16 15 15 15 16 14 12 12 12 12 12 12 11 10 10 9 9 10 11 12 12 15 21 21 16 18 14 13 13 15 13 15 16 19 21 19 20 20 17 17 18 18
4 4 5 7 8 8 9 9 10 10 11 11 12 13 13 13 13 15 14 14 14 14 14 13 13 13 13 13 13 14 15 16 15 15 16 15 15 15 13 12 12 12 12 12 11 9 8 9 9 11 13 12 12 14 13 27 29 17 15 13 13 14 13 15 17 17 20 19 20 20 20 21 19 18
5 5 5 6 7 8 9 10 10 11 11 11 12 12 13 14 15 14 15 18 14 13 13 14 13 13 13 13 14 15 14 14 15 15 15 15 15 16 15 13 12 12 11 11 10 10 10 11 11 11 12 13 13 15 16 3 24 31 15 15 13 12 13 14 17 19 19 20 19 20 20 18 19 19
4 5 5 6 7 8 9 9 10 11 11 11 12 12 13 13 14 15 15 14 15 13 13 12 12 13 13 12 13 13 12 13 14 15 15 14 14 14 14 12 11 11 10 10 10 11 10 11 12 12 12 14 12 13 14 11 5 14 26 18 14 12 14 15 18 19 18 20 21 19 18 20 21 21
4 6 6 7 8 8 9 10 10 11 12 12 12 12 13 14 14 15 15 15 15 14 14 13 12 12 14 13 12 12 14 14 14 14 15 15 14 15 15 14 13 11 10 11 10 11 11 12 13 12 13 13 15 15 12 9 10 8 16 34 19 12 15 16 17 18 18 19 19 18 10 9 16 25
6 5 5 6 8 8 8 9 10 10 11 12 12 12 13 14 14 14 15 15 15 15 15 14 15 14 13 12 12 13 13 14 15 14 15 15 16 15 15 14 14 12 11 12 11 11 10 11 11 12 11 13 13 12 10 11 10 8 6 22 32 20 17 17 19 18 17 17 16 16 13 14 14 13
5 6 6 6 7 8 9 9 10 11 11 12 13 14 14 13 14 14 15 17 16 16 16 15 14 14 13 13 13 12 14 14 13 14 14 15 16 16 19 19 15 13 12 12 12 11 12 10 11 15 15 13 13 11 11 13 14 11 8 8 16 25 27 26 22 21 17 16 17 19 21 20 17 17
4 6 7 7 7 9 9 10 10 11 12 12 13 13 14 14 13 22 20 19 16 16 15 15 15 14 13 13 13 13 12 14 14 15 14 14 15 16 18 15 13 13 12 11 11 10 9 10 11 12 12 12 12 12 14 12 12 8 6 4 5 5 14 26 31 27 25 23 22 20 18 17 17 20
4 6 7 8 8 8 9 9 10 11 12 12 13 13 13 14 14 16 14 16 16 16 16 16 14 13 13 13 13 12 12 13 14 15 15 14 14 15 15 14 14 14 13 11 10 10 10 9 9 11 11 11 12 11 12 11 10 6 4 4 7 5 4 2 18 27 30 31 31 28 26 24 21 18
5 6 7 7 8 9 9 9 10 11 11 12 12 13 13 13 15 16 15 15 16 16 17 16 15 14 15 14 14 13 11 12 13 14 16 16 15 15 15 15 15 15 14 13 11 10 9 10 11 11 12 12 10 11 13 10 7 5 5 6 6 9 8 7 8 9 12 12 16 19 15 12 9 14
5 5 7 8 8 9 9 9 10 11 11 12 12 13 14 14 14 16 15 15 15 17 17 17 16 15 15 15 14 15 14 16 16 15 15 15 14 14 15 15 15 15 14 14 12 11 10 10 10 10 12 12 10 11 10 9 6 5 5 9 10 10 9 9 12 11 8 6 8 15 15 17 21 24
Wind_Direction
250 249 251 251 259 256 254 256 253 250 250 249 248 245 251 257 268 286 294 291 297 297 290 289 291 182 263 293 286 293 293 298 301 298 293 289 288 290 292 293 291 289 288 286 286 284 283 279 273 267 263 258 254 256 258 260 263 262 261 260 259 259 259 262 255 234 225 211 206 196 192 192 192 196
248 253 257 253 265 266 267 265 260 255 256 256 252 253 253 250 257 266 275 283 286 292 296 275 285 295 234 270 298 289 288 291 289 284 283 282 282 287 287 284 283 284 284 283 282 282 280 278 278 277 267 257 253 250 255 257 260 262 262 260 256 254 252 251 252 245 231 220 209 195 192 192 191 193
262 267 268 271 271 275 277 274 271 273 271 269 271 267 266 260 260 271 273 281 279 282 289 293 281 287 298 293 291 292 284 282 284 283 281 282 283 286 289 287 283 279 279 279 278 278 277 277 275 273 272 269 256 253 254 258 257 259 259 259 256 252 249 248 247 246 236 221 208 199 194 191 190 190
268 269 269 268 270 277 280 276 276 276 272 274 275 275 271 269 266 268 270 267 276 281 284 290 292 292 296 298 289 285 290 284 283 284 282 286 292 293 287 284 280 279 277 274 275 275 275 274 275 272 272 270 264 248 247 250 253 255 258 260 258 252 248 246 246 245 239 218 211 203 199 198 189 186
266 266 268 267 269 276 275 274 275 272 272 273 273 274 276 275 271 267 268 269 274 279 279 283 287 296 302 294 291 294 291 291 287 282 282 283 282 285 285 284 281 276 273 274 272 271 272 273 272 270 266 263 262 252 245 250 253 254 255 256 256 253 249 245 244 242 240 227 207 197 195 191 192 190
260 265 266 269 270 266 267 271 270 270 271 269 269 265 265 267 267 264 270 271 273 279 284 281 285 287 298 291 292 292 293 289 288 285 282 283 283 283 283 280 278 280 280 276 272 270 271 268 268 268 263 262 259 257 255 253 253 254 253 252 252 252 249 245 243 241 237 232 219 202 191 190 188 188
264 265 263 267 269 269 271 268 268 264 263 265 268 269 266 267 266 263 260 270 272 275 278 280 286 287 294 286 292 293 285 283 285 284 281 281 284 281 281 278 273 273 272 274 272 272 269 266 266 267 265 259 256 257 257 256 254 252 251 249 248 249 247 243 242 240 235 230 226 212 202 189 187 186
259 259 265 264 263 266 269 270 268 262 256 257 258 262 261 262 263 261 257 255 265 272 277 277 276 283 290 286 286 286 285 282 282 278 282 279 277 278 278 278 277 276 278 278 277 274 274 275 275 273 266 260 257 254 254 255 253 251 251 250 246 245 244 242 239 238 235 230 221 207 201 199 191 186
256 255 255 263 260 262 266 269 267 270 266 261 260 259 262 260 258 261 260 262 258 265 267 274 273 276 277 278 280 280 283 283 276 280 276 280 279 280 278 279 275 276 272 270 271 270 269 270 270 270 271 267 257 253 253 253 255 253 251 250 246 244 242 239 237 234 232 229 223 206 196 193 192 189
253 255 254 256 256 255 259 267 271 273 272 269 264 257 257 263 261 261 263 258 263 258 264 264 275 269 277 274 275 273 274 280 282 280 277 277 278 282 284 274 272 271 274 274 269 266 263 261 263 264 264 263 255 251 250 252 254 254 251 249 245 243 240 237 235 232 229 224 217 211 196 190 188 189
252 253 253 255 256 258 260 264 267 268 266 265 268 268 263 265 256 260 254 259 255 260 260 266 263 268 267 266 277 268 268 271 270 283 285 281 279 277 276 278 272 270 270 268 266 265 263 262 260 260 262 255 250 251 251 251 250 251 250 246 243 241 238 235 233 230 226 221 214 208 200 192 188 184
257 256 260 257 255 255 256 252 256 260 270 273 270 267 261 260 259 257 261 256 258 255 261 258 266 256 273 261 268 270 265 274 269 257 277 283 289 287 278 270 286 286 279 279 278 268 263 261 259 256 255 251 244 242 246 248 249 248 246 243 240 238 235 232 230 228 223 219 215 206 198 189 187 187
261 262 262 262 263 262 265 266 268 270 270 267 268 259 239 245 246 255 258 257 257 258 260 262 260 264 262 265 264 270 263 257 271 278 270 277 277 278 280 276 255 261 276 277 269 269 264 259 253 247 240 240 242 242 243 248 249 246 244 242 237 236 233 230 228 225 220 217 212 210 201 190 186 183
265 264 263 264 271 275 279 282 281 281 282 281 281 283 282 280 274 267 263 259 256 257 260 258 259 262 261 262 253 260 263 264 268 270 270 272 278 278 279 278 272 262 259 275 285 278 263 247 248 243 246 244 240 246 247 245 247 245 242 239 236 234 232 228 226 222 218 213 209 207 197 191 186 186
273 273 275 276 275 277 280 281 281 282 280 281 284 284 284 283 280 280 280 280 278 270 261 260 254 254 257 253 257 252 264 261 262 267 267 265 272 273 281 288 292 257 240 288 298 299 295 295 290 282 265 257 252 252 249 249 248 245 240 236 232 230 229 225 223 220 215 211 206 202 200 188 188 183
278 282 281 277 276 275 277 278 279 280 281 283 284 284 284 285 282 279 276 277 277 276 281 277 270 265 261 264 251 256 255 260 262 259 261 260 265 272 272 273 276 288 327 297 291 286 281 272 270 270 262 256 256 254 256 257 256 249 241 235 232 228 226 223 220 217 212 208 204 198 202 197 183 185
284 284 284 286 284 282 286 287 280 277 277 278 279 281 283 281 279 279 278 276 273 274 272 273 274 272 283 281 276 270 271 271 273 277 271 262 261 262 270 270 277 280 296 299 294 293 290 289 280 272 269 268 264 261 258 257 257 258 250 238 230 227 223 219 216 213 210 207 202 199 194 200 194 181
283 284 289 293 291 288 286 281 280 279 277 278 279 276 272 270 270 271 268 270 271 272 271 272 272 271 264 269 271 270 272 273 271 275 271 266 262 262 259 269 271 278 283 271 284 282 278 277 273 271 276 270 266 259 259 258 260 259 255 243 233 226 221 216 213 211 208 206 203 196 196 191 194 190
282 288 290 290 289 293 289 281 286 288 288 289 288 287 285 282 271 254 253 252 253 256 258 262 265 268 264 262 265 263 257 253 257 257 263 264 262 267 270 265 261 271 263 257 254 260 270 268 267 271 274 273 268 265 269 265 262 259 256 249 237 227 220 214 211 209 207 204 204 198 191 191 189 188
287 288 289 290 294 290 287 292 295 297 298 296 293 291 290 288 281 275 274 275 275 272 264 259 259 259 262 262 258 257 252 251 248 251 257 260 260 264 265 265 270 263 267 242 248 259 267 267 267 275 267 269 273 272 266 264 260 261 256 251 240 227 218 213 209 208 206 203 199 196 189 189 188 189
286 283 289 295 296 298 297 298 300 299 303 302 298 293 287 281 275 271 272 272 276 279 278 277 276 277 276 275 273 272 267 263 254 253 257 255 254 260 257 258 261 264 265 251 235 255 259 264 267 272 270 269 273 272 267 261 256 254 254 248 239 225 216 210 208 207 205 201 197 194 193 184 187 186
283 293 300 300 298 297 297 300 303 305 306 299 291 284 283 283 282 280 282 277 277 279 281 280 278 277 276 275 274 273 273 274 273 260 258 258 257 258 258 264 266 272 265 262 259 263 258 270 260 277 279 277 258 262 263 260 251 249 248 247 234 222 213 209 206 206 204 200 198 193 189 189 179 182
296 300 301 300 300 299 300 305 306 305 305 296 292 293 292 291 291 293 299 297 290 280 270 270 269 267 266 267 263 264 266 267 270 268 264 262 251 257 262 265 272 273 263 260 250 259 266 261 259 257 273 272 273 247 254 261 294 288 273 240 230 218 211 208 206 205 203 199 198 195 186 188 184 177
303 304 303 301 303 305 305 305 305 305 306 305 302 300 296 295 298 305 295 285 287 290 287 284 279 274 266 260 256 254 255 257 257 259 260 256 252 256 262 263 259 261 268 271 250 256 263 249 251 218 258 292 296 285 252 288 268 279 283 266 232 216 209 207 206 204 199 196 197 194 192 182 182 181
308 309 306 307 305 306 306 306 307 309 310 311 309 305 303 299 297 300 300 302 305 300 296 287 280 268 256 254 246 246 248 245 244 246 252 249 244 246 251 253 252 255 252 245 253 259 263 260 272 281 271 260 275 289 289 282 283 285 283 283 255 216 202 205 201 202 199 195 195 193 189 186 177 178
306 307 307 307 308 309 311 313 313 314 314 314 315 307 304 304 306 307 307 312 311 300 293 285 277 272 262 256 252 247 246 244 240 243 243 242 240 239 241 244 249 256 256 241 241 243 255 262 261 269 269 271 273 266 291 293 284 287 292 291 264 225 198 197 196 198 195 192 195 192 186 183 183 178
311 309 306 302 306 315 317 317 316 316 317 319 311 310 311 311 312 315 318 309 302 298 297 297 295 288 272 257 252 246 248 245 243 246 246 245 244 241 241 242 243 251 257 254 240 240 243 257 257 262 269 270 277 281 273 282 293 305 309 306 282 224 198 194 193 194 187 189 194 189 186 183 183 183
310 309 303 308 317 319 318 318 318 320 320 315 314 316 317 318 320 315 306 302 300 300 300 300 299 301 299 282 267 256 251 253 249 250 247 244 243 241 242 243 244 245 247 247 246 242 243 250 253 251 251 261 266 269 276 271 265 286 295 296 287 232 197 191 192 190 185 184 188 183 179 181 184 184
305 308 315 319 320 321 321 320 321 320 317 316 318 320 321 322 312 307 304 304 303 300 301 300 298 297 298 302 300 289 270 258 255 254 253 249 247 245 243 245 244 246 245 241 242 239 238 239 245 249 248 245 254 258 263 271 277 279 273 290 291 246 200 188 188 186 180 180 180 180 182 179 183 184
313 319 323 322 321 321 321 320 320 317 316 319 321 321 322 314 308 306 307 305 305 301 302 302 300 301 303 301 301 301 298 284 264 256 254 252 249 244 244 246 246 243 244 243 243 241 234 233 233 240 244 244 242 251 251 264 272 268 270 266 271 275 217 185 187 183 178 177 179 178 180 181 182 182
333 334 328 320 319 317 317 317 315 313 314 313 312 310 311 310 308 306 305 308 309 305 301 302 302 302 300 298 297 295 296 292 283 265 254 251 250 245 240 242 249 253 248 240 237 234 231 226 226 227 235 241 244 241 248 250 262 269 271 257 261 261 231 188 181 181 176 172 173 179 179 179 180 183
352 333 317 316 306 304 307 308 302 301 306 307 309 309 312 311 311 310 309 308 301 299 295 292 296 296 299 296 297 296 294 293 293 289 271 251 250 243 242 242 246 251 258 252 240 231 225 221 224 229 231 235 242 245 240 242 249 258 264 262 254 259 240 194 178 177 174 168 172 179 180 178 178 180
349 319 314 305 310 310 311 312 311 312 312 312 311 311 313 317 317 313 311 312 311 309 307 304 302 300 300 299 299 300 298 297 298 298 294 270 249 247 237 240 244 246 253 254 247 226 211 218 222 229 230 232 236 239 245 251 250 247 252 259 254 256 236 197 176 171 167 170 173 171 175 176 176 177
337 317 310 307 312 314 316 316 316 319 319 319 320 318 322 320 317 316 314 311 310 312 310 305 302 300 302 301 303 302 301 300 298 296 295 290 267 248 238 239 239 243 247 251 251 245 227 215 221 230 233 237 235 229 231 241 254 253 242 248 248 255 231 195 177 168 169 170 166 172 173 175 175 176
343 326 320 313 311 308 310 310 314 316 318 321 320 320 319 317 318 319 318 312 309 311 311 308 302 303 306 306 303 302 301 299 299 300 298 295 287 258 243 238 240 242 241 242 243 239 233 229 221 228 229 231 238 239 225 227 244 245 246 242 250 245 222 191 173 169 168 168 169 172 172 171 177 177
313 308 307 311 311 311 315 313 313 315 316 317 319 318 320 321 321 321 314 309 308 312 311 308 308 308 308 304 301 301 300 300 297 296 296 295 296 282 251 241 241 244 241 244 243 240 230 234 229 232 240 239 241 251 248 209 212 231 229 242 239 238 207 185 172 170 169 171 171 170 174 173 173 175
323 311 300 294 301 313 315 315 316 316 317 317 318 318 317 318 319 315 309 311 307 306 310 311 309 308 306 304 302 300 297 297 296 297 294 295 292 291 275 250 240 240 242 243 243 245 242 245 239 238 243 247 250 254 257 208 207 212 214 224 240 226 193 177 170 173 174 168 169 174 174 170 172 173
311 300 302 308 311 311 309 309 313 314 317 317 315 315 314 313 313 312 313 312 310 308 313 312 307 307 304 304 305 302 299 296 296 293 291 290 290 289 283 263 245 238 239 240 236 238 235 238 237 237 237 245 254 253 268 249 217 221 213 216 226 218 186 175 172 171 173 172 171 177 170 174 174 174
320 317 319 311 310 310 310 312 315 315 317 315 316 315 315 314 314 315 316 313 310 312 316 313 310 308 307 306 301 300 300 299 295 292 291 289 286 287 289 283 259 242 241 241 236 236 232 232 233 233 234 239 242 247 252 271 256 254 206 205 216 208 186 175 173 168 167 172 174 171 166 159 162 164
312 302 292 299 302 305 303 307 311 313 315 314 314 312 313 315 314 314 314 311 310 315 316 312 312 312 309 306 302 298 291 290 292 292 290 286 284 283 281 281 277 254 239 240 241 241 236 234 233 233 236 240 251 260 270 265 274 268 231 202 207 205 181 170 170 169 168 169 156 145 138 141 148 146
300 300 299 298 300 304 307 309 310 313 313 313 312 313 314 311 313 311 311 313 313 316 318 317 315 315 312 310 305 300 298 294 290 288 287 284 282 283 282 284 284 267 247 244 244 244 246 245 246 245 241 247 248 257 255 255 249 248 226 218 201 201 183 173 169 165 164 153 154 158 156 157 149 150
289 297 304 307 307 307 307 309 311 313 313 313 314 313 313 313 309 315 316 311 312 317 318 318 318 317 315 312 309 305 296 292 290 288 284 284 284 284 284 285 281 279 257 248 247 247 247 241 244 243 243 240 240 234 241 238 240 235 218 203 165 184 207 186 170 166 160 162 162 162 155 151 153 159
307 308 308 309 307 305 309 308 310 311 311 312 312 312 311 314 313 318 318 315 319 323 323 320 319 318 316 314 309 304 298 291 290 288 290 286 283 281 283 284 286 287 283 264 251 252 251 254 255 254 247 236 230 225 238 233 229 215 199 154 148 128 74 172 183 166 165 169 169 166 164 160 157 163
310 310 305 304 305 305 307 308 308 308 310 311 310 311 312 314 315 317 316 313 320 324 324 321 320 320 319 317 311 305 300 297 295 296 295 292 284 279 278 280 280 277 277 274 265 252 252 251 248 247 244 234 226 226 231 233 213 205 186 149 135 130 134 106 81 112 127 94 76 66 70 62 43 161
304 301 299 302 302 305 303 307 306 308 309 310 312 313 313 312 313 312 309 311 320 323 324 324 322 322 321 318 317 313 309 305 302 294 291 286 281 277 274 274 274 273 267 265 263 261 255 253 254 244 238 232 224 226 228 215 197 172 189 152 145 141 139 134 133 132 108 82 85 106 113 116 116 102